Location: Sobotiste
(48.7170°N, 17.4000°E)
Time: 02:06:26
(UTC+02:00)

Envisat - Visible Passes

Search period start: 25 April 2019 00:00
Search period end: 05 May 2019 00:00
Orbit: 764 x 766 km, 98.2° (Epoch: 24 April)

Date Brightness Start Highest point End Pass type
(mag) Time Alt. Az. Time Alt. Az. Time Alt. Az.
26 Apr 5.8 20:43:17 10° SW 20:46:28 17° W 20:49:40 10° NW visible
29 Apr 5.7 20:31:23 10° SW 20:35:06 20° W 20:38:52 10° NW visible
01 May 6.0 20:59:02 10° WSW 21:01:00 12° W 21:02:58 10° WNW visible
04 May 5.8 20:46:42 10° WSW 20:49:36 15° W 20:52:32 10° NW visible
